Location: UBC Liquid-Mirror Observatory
(49.2876°N, 122.5728°W)
Time: 17:01:20
(UTC-07:00)

Amateur Radio Satellites - All Passes

Search period start: 20 September 2014 16:31
Search period end: 21 September 2014 16:31
Location: UBC Liquid-Mirror Observatory, 49.2876°N, 122.5728°W

Satellite Date Start Highest point End Downlink Frequencies (MHz)
Time Altitude Azimuth
JAS-2 20 Sep 16:33:08 16:36:40 19° 56° (NE) 16:40:14 435.800 - 435.900 CW/SSB, 435.910 FM
Uosat F 20 Sep 16:41:23 16:46:23 77° 256° (WSW) 16:51:25 435.120 FM
TMSAT-1 20 Sep 16:44:23 16:48:00 18° 271° (W) 16:51:38 436.925 FM
Sapphire 20 Sep 16:47:59 16:50:10 12° 352° (N) 16:52:21 437.095 MHz 1200 baud AX-25 AFSK
MaSat-1 20 Sep 16:50:40 16:54:16 28° 46° (NE) 16:57:25 437.345 MHz
Saudisat 1A 20 Sep 16:57:55 17:01:24 23° 115° (ESE) 17:04:53 436.775 MHz
Hamsat 20 Sep 17:06:43 17:10:14 24° 64° (ENE) 17:13:44 145.90 MHz
PCSat 20 Sep 17:15:56 17:17:53 12° 0° (N) 17:19:49 145.825 MHz
OPAL 20 Sep 17:42:38 17:47:33 41° 100° (E) 17:52:21 ?
KITSAT 1 20 Sep 17:55:00 17:57:28 12° 96° (E) 17:59:56 435.175 FM
JAS-2 20 Sep 18:16:02 18:21:14 74° 257° (WSW) 18:26:30 435.800 - 435.900 CW/SSB, 435.910 FM
AO-7 20 Sep 18:16:11 18:22:23 23° 271° (W) 18:28:38 29.400 - 29.500 MHz
Uosat F 20 Sep 18:24:35 18:26:02 11° 275° (W) 18:27:29 435.120 FM
MaSat-1 20 Sep 18:27:29 18:31:01 32° 250° (WSW) 18:34:04 437.345 MHz
Sapphire 20 Sep 18:32:56 18:36:02 15° 19° (NNE) 18:39:07 437.095 MHz 1200 baud AX-25 AFSK
Saudisat 1A 20 Sep 18:36:19 18:40:40 57° 315° (NW) 18:45:02 436.775 MHz
Hamsat 20 Sep 18:41:50 18:45:59 42° 262° (W) 18:50:09 145.90 MHz
PCSat 20 Sep 18:59:46 19:03:35 19° 27° (NNE) 19:07:23 145.825 MHz
OPAL 20 Sep 19:21:42 19:26:20 34° 299° (WNW) 19:30:54 ?
SO-67 20 Sep 19:22:52 19:26:19 89° 70° (ENE) 19:29:48 435.3500 MHz FM
KITSAT 1 20 Sep 19:43:15 19:51:03 55° 117° (ESE) 19:58:53 435.175 FM
HO-68 20 Sep 19:43:48 19:49:52 32° 55° (NE) 19:55:59 435.675 MHz FM
STRAND 1 20 Sep 20:04:03 20:09:11 67° 103° (ESE) 20:14:18 ?
Sapphire 20 Sep 20:15:54 20:21:01 39° 43° (NE) 20:26:06 437.095 MHz 1200 baud AX-25 AFSK
Saudisat 1A 20 Sep 20:18:15 20:21:10 17° 337° (NNW) 20:24:05 436.775 MHz
Oscar 11 20 Sep 20:21:55 20:23:41 12° 56° (NE) 20:25:27 145.825 FM, Beacon 2401.500 USB
UKube-1 20 Sep 20:38:02 20:41:24 23° 62° (ENE) 20:44:47 145.840 MHz, 145.915 MHz
PCSat 20 Sep 20:42:45 20:48:09 60° 50° (NE) 20:53:30 145.825 MHz
AO-40 20 Sep 21:27:28 03:11:45 34° 181° (S) 06:28:11 Beacon 2401.320
HO-68 20 Sep 21:30:01 21:37:07 68° 256° (WSW) 21:44:17 435.675 MHz FM
KITSAT 1 20 Sep 21:38:50 21:46:39 50° 320° (NW) 21:54:30 435.175 FM
STRAND 1 20 Sep 21:44:05 21:47:56 22° 302° (WNW) 21:51:46 ?
FUNcube-1 20 Sep 21:48:36 21:52:36 33° 66° (ENE) 21:56:42 145.950 - 145.970 MHz USB
Oscar 11 20 Sep 21:54:48 21:59:10 83° 75° (ENE) 22:03:34 145.825 FM, Beacon 2401.500 USB
Sapphire 20 Sep 21:59:23 22:04:33 45° 244° (WSW) 22:09:41 437.095 MHz 1200 baud AX-25 AFSK
Saudisat 1A 20 Sep 22:01:11 22:02:32 11° 1° (N) 22:03:52 436.775 MHz
UKube-1 20 Sep 22:13:10 22:17:20 47° 260° (W) 22:21:33 145.840 MHz, 145.915 MHz
PCSat 20 Sep 22:26:43 22:31:13 27° 250° (WSW) 22:35:42 145.825 MHz
Oscar 10/S400 20 Sep 22:38:27 23:12:12 47° 191° (S) 06:19:46 145.825 - 145.975 CW/USB, Beacon 145.810 USB
SO-50 20 Sep 22:45:37 22:49:59 51° 123° (ESE) 22:54:28 436.795 FM
HO-68 20 Sep 23:22:46 23:26:12 14° 276° (W) 23:29:40 435.675 MHz FM
FUNcube-1 20 Sep 23:25:01 23:28:59 32° 265° (W) 23:33:04 145.950 - 145.970 MHz USB
Oscar 11 20 Sep 23:34:10 23:35:57 12° 273° (W) 23:37:45 145.825 FM, Beacon 2401.500 USB
KITSAT 1 20 Sep 23:37:38 23:44:09 26° 348° (NNW) 23:50:41 435.175 FM
Saudisat 1A 20 Sep 23:40:42 23:43:50 19° 26° (NNE) 23:46:58 436.775 MHz
UOSAT-12 21 Sep 00:15:48 00:20:05 38° 120° (ESE) 00:24:28 437.025 FM, 437.400 FM
SO-50 21 Sep 00:26:40 00:30:46 32° 324° (NW) 00:34:59 436.795 FM
Oscar 19 21 Sep 01:17:33 01:18:59 11° 84° (E) 01:20:24 437.125 CW, 437.150 USB
Saudisat 1A 21 Sep 01:19:47 01:24:13 67° 47° (NE) 01:28:37 436.775 MHz
KITSAT 1 21 Sep 01:35:45 01:42:29 27° 17° (NNE) 01:49:10 435.175 FM
Oscar 16 21 Sep 01:54:28 01:58:42 25° 92° (E) 02:02:52 437.025 USB, Beacon 2401.1428
UOSAT-12 21 Sep 01:55:49 02:00:15 41° 320° (NW) 02:04:45 437.025 FM, 437.400 FM
AO-Echo 21 Sep 01:56:42 01:58:43 12° 87° (E) 02:00:45 ?
SO-50 21 Sep 02:10:18 02:12:46 14° 348° (NNW) 02:15:15 436.795 FM
ISS 21 Sep 02:33:46 02:36:13 19° 140° (SE) 02:38:40 145.800 FM
Gurwin Techsat 1B 21 Sep 02:39:25 02:42:11 14° 86° (E) 02:44:56 435.225 FM
ITAMSAT 1 21 Sep 02:40:56 02:45:21 27° 94° (E) 02:49:45 435.822 SSB
Uribyol 2 21 Sep 02:44:37 02:49:14 31° 95° (E) 02:53:50 436.500 FM
JAS-1B 21 Sep 02:52:40 02:58:03 38° 97° (E) 03:03:20 435.800 - 435.900 CW/SSB
Oscar 19 21 Sep 02:54:03 02:59:15 74° 103° (ESE) 03:04:24 437.125 CW, 437.150 USB
Saudisat 1A 21 Sep 03:00:13 03:03:22 19° 247° (WSW) 03:06:29 436.775 MHz
TMSAT-1 21 Sep 03:14:32 03:18:32 21° 90° (E) 03:22:31 436.925 FM
AO-27 21 Sep 03:15:59 03:21:06 53° 100° (E) 03:26:12 436.795 MHz FM
OPAL 21 Sep 03:24:32 03:28:23 22° 55° (NE) 03:32:16 ?
KITSAT 1 21 Sep 03:31:42 03:39:42 59° 44° (NE) 03:47:38 435.175 FM
Oscar 16 21 Sep 03:33:19 03:38:22 53° 291° (WNW) 03:43:22 437.025 USB, Beacon 2401.1428
AO-Echo 21 Sep 03:33:20 03:38:12 87° 105° (ESE) 03:43:11 ?
UOSAT-12 21 Sep 03:38:46 03:41:38 16° 343° (NNW) 03:44:32 437.025 FM, 437.400 FM
SO-50 21 Sep 03:52:44 03:55:16 14° 13° (NNE) 03:57:50 436.795 FM
RS-15 21 Sep 03:58:30 04:08:25 41° 110° (ESE) 04:18:14 29.354 - 29.394 USB, Beacon 29.352 USB
ISS 21 Sep 04:09:13 04:12:33 81° 158° (SSE) 04:15:54 145.800 FM
Gurwin Techsat 1B 21 Sep 04:17:35 04:22:56 88° 105° (ESE) 04:28:16 435.225 FM
AO-7 21 Sep 04:17:49 04:24:10 24° 90° (E) 04:30:28 29.400 - 29.500 MHz
ITAMSAT 1 21 Sep 04:20:04 04:25:05 49° 292° (WNW) 04:30:06 435.822 SSB
Uribyol 2 21 Sep 04:23:55 04:28:51 44° 294° (WNW) 04:33:47 436.500 FM
Oscar 19 21 Sep 04:34:23 04:38:04 20° 303° (WNW) 04:41:43 437.125 CW, 437.150 USB
JAS-1B 21 Sep 04:43:32 04:48:48 36° 298° (WNW) 04:53:55 435.800 - 435.900 CW/SSB
Uosat F 21 Sep 04:45:21 04:49:25 24° 93° (E) 04:53:27 435.120 FM
TMSAT-1 21 Sep 04:53:39 04:58:55 64° 289° (WNW) 05:04:09 436.925 FM
AO-27 21 Sep 04:56:02 05:00:20 27° 299° (WNW) 05:04:38 436.795 MHz FM
OPAL 21 Sep 05:01:34 05:06:46 73° 254° (WSW) 05:12:01 ?
AO-Echo 21 Sep 05:13:31 05:16:23 16° 303° (WNW) 05:19:17 ?
Oscar 16 21 Sep 05:15:46 05:16:37 10° 311° (NW) 05:17:27 437.025 USB, Beacon 2401.1428
JAS-2 21 Sep 05:21:07 05:23:33 12° 85° (E) 05:26:05 435.800 - 435.900 CW/SSB, 435.910 FM
UOSAT-12 21 Sep 05:21:26 05:23:43 13° 8° (N) 05:26:00 437.025 FM, 437.400 FM
KITSAT 1 21 Sep 05:27:26 05:34:57 44° 247° (WSW) 05:42:26 435.175 FM
SO-50 21 Sep 05:32:57 05:37:15 32° 36° (NE) 05:41:37 436.795 FM
ISS 21 Sep 05:46:07 05:49:25 54° 358° (N) 05:52:42 145.800 FM
STRAND 1 21 Sep 05:46:34 05:50:36 24° 60° (ENE) 05:54:39 ?
Gurwin Techsat 1B 21 Sep 05:58:47 06:02:14 18° 305° (NW) 06:05:41 435.225 FM
RS-15 21 Sep 06:09:08 06:20:07 72° 315° (NW) 06:31:07 29.354 - 29.394 USB, Beacon 29.352 USB
AO-7 21 Sep 06:09:41 06:18:01 89° 291° (WNW) 06:26:20 29.400 - 29.500 MHz
Hamsat 21 Sep 06:23:36 06:27:11 25° 93° (E) 06:30:42 145.90 MHz
Uosat F 21 Sep 06:23:37 06:28:30 52° 291° (WNW) 06:33:22 435.120 FM
TMSAT-1 21 Sep 06:35:41 06:37:51 13° 309° (NW) 06:40:02 436.925 FM
OPAL 21 Sep 06:45:01 06:46:34 11° 273° (W) 06:48:07 ?
UOSAT-12 21 Sep 07:01:27 07:05:28 26° 32° (NNE) 07:09:26 437.025 FM, 437.400 FM
JAS-2 21 Sep 07:03:36 07:09:33 68° 103° (ESE) 07:16:16 435.800 - 435.900 CW/SSB, 435.910 FM
SO-50 21 Sep 07:13:24 07:18:06 56° 236° (WSW) 07:22:50 436.795 FM
ISS 21 Sep 07:22:58 07:26:19 86° 21° (NNE) 07:29:39 145.800 FM
STRAND 1 21 Sep 07:24:27 07:29:27 57° 259° (W) 07:34:30 ?
Hamsat 21 Sep 07:59:18 08:03:15 37° 292° (WNW) 08:07:07 145.90 MHz
AO-7 21 Sep 08:03:17 08:09:53 28° 313° (NW) 08:16:28 29.400 - 29.500 MHz
SO-67 21 Sep 08:15:19 08:18:45 58° 100° (E) 08:22:09 435.3500 MHz FM
MaSat-1 21 Sep 08:15:44 08:20:22 39° 112° (ESE) 08:24:52 437.345 MHz
RS-15 21 Sep 08:24:36 08:34:36 38° 346° (NNW) 08:44:44 29.354 - 29.394 USB, Beacon 29.352 USB
UOSAT-12 21 Sep 08:41:22 08:46:07 77° 233° (SW) 08:50:48 437.025 FM, 437.400 FM
JAS-2 21 Sep 08:49:31 08:54:18 26° 300° (WNW) 08:59:32 435.800 - 435.900 CW/SSB, 435.910 FM
HO-68 21 Sep 08:54:07 08:59:03 19° 88° (E) 09:03:58 435.675 MHz FM
ISS 21 Sep 08:59:59 09:02:45 24° 217° (SW) 09:05:30 145.800 FM
Oscar 11 21 Sep 09:40:26 09:41:56 12° 86° (E) 09:43:25 145.825 FM, Beacon 2401.500 USB
SO-67 21 Sep 09:49:47 09:51:20 13° 299° (WNW) 09:52:53 435.3500 MHz FM
MaSat-1 21 Sep 09:52:28 09:57:08 38° 310° (NW) 10:01:36 437.345 MHz
UKube-1 21 Sep 09:57:36 10:00:59 22° 93° (E) 10:04:20 145.840 MHz, 145.915 MHz
UOSAT-12 21 Sep 10:23:34 10:25:28 12° 252° (WSW) 10:27:22 437.025 FM, 437.400 FM
RS-15 21 Sep 10:40:09 10:50:22 41° 20° (NNE) 11:00:51 29.354 - 29.394 USB, Beacon 29.352 USB
HO-68 21 Sep 10:40:32 10:47:46 87° 108° (ESE) 10:54:59 435.675 MHz FM
Sapphire 21 Sep 11:05:36 11:07:38 12° 102° (ESE) 11:09:41 437.095 MHz 1200 baud AX-25 AFSK
FUNcube-1 21 Sep 11:09:25 11:13:47 39° 97° (E) 11:18:05 145.950 - 145.970 MHz USB
Oscar 11 21 Sep 11:14:22 11:18:46 86° 285° (WNW) 11:23:06 145.825 FM, Beacon 2401.500 USB
PCSat 21 Sep 11:30:03 11:34:03 22° 108° (ESE) 11:38:05 145.825 MHz
UKube-1 21 Sep 11:33:13 11:37:25 46° 291° (WNW) 11:41:35 145.840 MHz, 145.915 MHz
MaSat-1 21 Sep 11:33:46 11:35:06 11° 331° (NNW) 11:36:25 437.345 MHz
Oscar 16 21 Sep 11:41:07 11:42:04 11° 49° (NE) 11:43:01 437.025 USB, Beacon 2401.1428
JAS-1B 21 Sep 11:55:12 11:58:59 15° 48° (NE) 12:02:29 435.800 - 435.900 CW/SSB
ITAMSAT 1 21 Sep 12:27:42 12:29:32 12° 50° (NE) 12:31:22 435.822 SSB
HO-68 21 Sep 12:29:08 12:34:43 25° 309° (NW) 12:40:18 435.675 MHz FM
Uribyol 2 21 Sep 12:30:44 12:33:06 13° 51° (NE) 12:35:29 436.500 FM
Oscar 19 21 Sep 12:37:05 12:41:22 27° 61° (ENE) 12:45:40 437.125 CW, 437.150 USB
Sapphire 21 Sep 12:44:43 12:50:05 71° 121° (ESE) 12:55:31 437.095 MHz 1200 baud AX-25 AFSK
FUNcube-1 21 Sep 12:46:04 12:50:02 29° 296° (WNW) 12:53:58 145.950 - 145.970 MHz USB
Oscar 11 21 Sep 12:52:23 12:54:16 13° 304° (NW) 12:56:07 145.825 FM, Beacon 2401.500 USB
RS-15 21 Sep 12:53:19 13:04:26 83° 49° (NE) 13:15:58 29.354 - 29.394 USB, Beacon 29.352 USB
AO-27 21 Sep 13:00:48 13:04:37 21° 58° (ENE) 13:08:26 436.795 MHz FM
PCSat 21 Sep 13:11:31 13:16:56 73° 307° (NW) 13:22:24 145.825 MHz
AO-Echo 21 Sep 13:13:12 13:17:02 25° 62° (ENE) 13:20:51 ?
Oscar 16 21 Sep 13:15:17 13:20:19 54° 69° (ENE) 13:25:24 437.025 USB, Beacon 2401.1428
AO-7 21 Sep 13:33:26 13:37:59 16° 34° (NE) 13:42:31 29.400 - 29.500 MHz
JAS-1B 21 Sep 13:40:35 13:48:31 59° 68° (ENE) 13:55:10 435.800 - 435.900 CW/SSB
ITAMSAT 1 21 Sep 14:02:56 14:08:01 61° 70° (ENE) 14:13:09 435.822 SSB
Gurwin Techsat 1B 21 Sep 14:03:55 14:08:38 34° 64° (ENE) 14:13:23 435.225 FM
Uribyol 2 21 Sep 14:06:32 14:11:40 69° 71° (ENE) 14:16:52 436.500 FM
Oscar 19 21 Sep 14:15:22 14:20:26 53° 260° (W) 14:25:33 437.125 CW, 437.150 USB
Sapphire 21 Sep 14:29:21 14:34:01 29° 323° (NW) 14:38:43 437.095 MHz 1200 baud AX-25 AFSK
AO-27 21 Sep 14:38:30 14:43:39 70° 257° (WSW) 14:48:51 436.795 MHz FM
TMSAT-1 21 Sep 14:39:09 14:44:12 48° 68° (ENE) 14:49:18 436.925 FM
AO-Echo 21 Sep 14:51:04 14:55:36 46° 261° (W) 15:00:08 ?
Oscar 16 21 Sep 14:55:46 14:59:59 25° 268° (W) 15:04:14 437.025 USB, Beacon 2401.1428
PCSat 21 Sep 14:57:13 15:01:18 21° 330° (NNW) 15:05:25 145.825 MHz
RS-15 21 Sep 15:06:21 15:15:45 34° 253° (WSW) 15:25:30 29.354 - 29.394 USB, Beacon 29.352 USB
AO-7 21 Sep 15:21:02 15:28:52 49° 58° (ENE) 15:36:42 29.400 - 29.500 MHz
JAS-1B 21 Sep 15:32:02 15:39:22 35° 264° (W) 15:45:41 435.800 - 435.900 CW/SSB
Gurwin Techsat 1B 21 Sep 15:43:32 15:48:32 41° 263° (W) 15:53:34 435.225 FM
ITAMSAT 1 21 Sep 15:44:02 15:47:57 21° 269° (W) 15:51:53 435.822 SSB
Uribyol 2 21 Sep 15:48:03 15:51:41 19° 270° (W) 15:55:20 436.500 FM
Uosat F 21 Sep 16:02:30 16:07:19 51° 68° (ENE) 16:12:10 435.120 FM
Sapphire 21 Sep 16:16:51 16:19:20 13° 348° (NNW) 16:21:48 437.095 MHz 1200 baud AX-25 AFSK
TMSAT-1 21 Sep 16:19:51 16:24:21 28° 267° (W) 16:28:54 436.925 FM
AO-27 21 Sep 16:23:29 16:24:09 10° 276° (W) 16:24:48 436.795 MHz FM
